Location: ???????
(55.4362°N, 38.1183°E)
Time: 17:35:00
(UTC+00:00)

Cosmos 2278 Rocket - Pass Details

Date: 31 October 2021
Orbit: 841 x 845 km, 71.0° (Epoch: 28 November)

Event Time Altitude Azimuth Distance (km) Brightness Sun altitude
Rises 14:18:49 0° 322° (NW) 3,418 5.6 -4.5°
Reaches altitude 10° 14:21:34 10° 333° (NNW) 2,480 4.8 -4.9°
Maximum altitude 14:26:37 31° 35° (NE) 1,437 3.0 -5.6°
Drops below altitude 10° 14:31:38 10° 98° (E) 2,469 4.1 -6.3°
Enters shadow 14:33:35 - 106° (ESE) 3,130 4.6 -6.5°
